Hlavní strana
METAR-TAF:

METAR-TAF

Letiště :

Northeast Georgia Regional Airport

Winder, Georgie, Spojené státy americké

zeměpisná šířka: 33-58-56N, zeměpisná délka: 083-40-05W, výška: 287 m

Aktuální stav počasí

Zpráva byla vytvořena před 38 minutami, v 17:35 UTC
Východoseverovýchodní vítr 7 kt
Teplota 8°C
Vlhkost vzduchu 81%
Tlak 1021 hPa
Viditelnost: 16.1 km
Zataženo ve výšce 7000 ft

METAR: KWDR 151735Z AUTO 06007KT 10SM OVC070 08/05 A3014 RMK AO2

Čas: 13:13 (18:13 UTC)


TAF: chybějící

Stav a předpovědi počasí z více než 4 000 letišť (zprávy METAR a TAF).

Červené a žluté tečky na mapě představují dostupné meteorologické stanice.

Když kurzor umístíte na tečku, zobrazí se název stanice.

Pak kliknutím zobrazíte stav a předpověď počasí.

Chcete-li změnit mapu, kliknutím na zelené tlačítko se znaménkem +mapu přiblížíte, kliknutím na zelené tlačítko se znaménkem – mapu oddálíte a kliknutím na zelené šipky přejdete na sousední mapy.


METAR-TAF: